Date,Time,WBGT,Tg
2012/6/1,1:00,9.9,10.0
2012/6/1,2:00,9.6,9.7
2012/6/1,3:00,8.4,8.3
2012/6/1,4:00,8.2,8.1
2012/6/1,5:00,8.1,8.8
2012/6/1,6:00,8.7,10.9
2012/6/1,7:00,11.9,23.1
2012/6/1,8:00,16.8,30.7
2012/6/1,9:00,18.6,33.8
2012/6/1,10:00,20.3,36.3
2012/6/1,11:00,20.7,37.4
2012/6/1,12:00,21.0,38.1
2012/6/1,13:00,20.9,38.0
2012/6/1,14:00,19.9,37.8
2012/6/1,15:00,20.4,37.1
2012/6/1,16:00,18.6,33.3
2012/6/1,17:00,16.8,28.4
2012/6/1,18:00,15.0,21.7
2012/6/1,19:00,13.1,14.8
2012/6/1,20:00,12.7,14.1
2012/6/1,21:00,11.5,12.3
2012/6/1,22:00,11.1,11.6
2012/6/1,23:00,10.1,10.4
2012/6/1,24:00,9.8,10.1
2012/6/2,1:00,9.7,9.9
2012/6/2,2:00,10.0,10.2
2012/6/2,3:00,10.0,10.3
2012/6/2,4:00,9.8,10.0
2012/6/2,5:00,9.8,11.0
2012/6/2,6:00,11.8,19.9
2012/6/2,7:00,14.1,25.7
2012/6/2,8:00,17.0,31.1
2012/6/2,9:00,18.9,34.4
2012/6/2,10:00,19.5,36.0
2012/6/2,11:00,21.6,39.3
2012/6/2,12:00,22.7,41.3
2012/6/2,13:00,21.5,39.8
2012/6/2,14:00,21.7,40.3
2012/6/2,15:00,22.0,39.3
2012/6/2,16:00,21.2,36.6
2012/6/2,17:00,19.0,30.8
2012/6/2,18:00,16.2,19.6
2012/6/2,19:00,14.9,16.7
2012/6/2,20:00,13.8,15.4
2012/6/2,21:00,13.1,14.4
2012/6/2,22:00,12.6,13.6
2012/6/2,23:00,11.9,12.8
2012/6/2,24:00,12.0,12.9
2012/6/3,1:00,11.8,12.6
2012/6/3,2:00,11.5,12.3
2012/6/3,3:00,11.5,12.3
2012/6/3,4:00,13.0,13.9
2012/6/3,5:00,13.4,15.2
2012/6/3,6:00,15.6,23.7
2012/6/3,7:00,17.4,29.7
2012/6/3,8:00,18.8,33.7
2012/6/3,9:00,19.9,36.9
2012/6/3,10:00,20.0,37.9
2012/6/3,11:00,21.8,40.5
2012/6/3,12:00,22.3,41.1
2012/6/3,13:00,23.4,43.2
2012/6/3,14:00,23.7,43.8
2012/6/3,15:00,23.9,43.4
2012/6/3,16:00,23.1,41.2
2012/6/3,17:00,22.1,35.9
2012/6/3,18:00,19.8,24.9
2012/6/3,19:00,16.9,20.2
2012/6/3,20:00,15.1,17.9
2012/6/3,21:00,15.0,17.0
2012/6/3,22:00,14.3,16.2
2012/6/3,23:00,15.0,16.7
2012/6/3,24:00,15.2,16.7
2012/6/4,1:00,15.4,16.8
2012/6/4,2:00,15.0,16.1
2012/6/4,3:00,14.6,15.7
2012/6/4,4:00,14.4,15.3
2012/6/4,5:00,14.0,15.8
2012/6/4,6:00,16.4,24.3
2012/6/4,7:00,17.0,21.5
2012/6/4,8:00,18.1,23.9
2012/6/4,9:00,21.4,35.7
2012/6/4,10:00,23.9,39.0
2012/6/4,11:00,23.5,39.3
2012/6/4,12:00,22.9,38.6
2012/6/4,13:00,23.1,39.8
2012/6/4,14:00,22.6,39.3
2012/6/4,15:00,22.4,38.9
2012/6/4,16:00,21.6,36.5
2012/6/4,17:00,20.0,32.1
2012/6/4,18:00,18.2,25.9
2012/6/4,19:00,16.0,17.9
2012/6/4,20:00,15.2,16.6
2012/6/4,21:00,14.4,15.4
2012/6/4,22:00,13.3,14.1
2012/6/4,23:00,12.9,13.5
2012/6/4,24:00,12.3,12.8
2012/6/5,1:00,12.3,12.8
2012/6/5,2:00,11.6,12.2
2012/6/5,3:00,11.2,11.6
2012/6/5,4:00,10.5,10.9
2012/6/5,5:00,11.1,12.4
2012/6/5,6:00,13.0,20.6
2012/6/5,7:00,15.9,27.6
2012/6/5,8:00,20.4,34.6
2012/6/5,9:00,22.0,37.9
2012/6/5,10:00,22.9,41.2
2012/6/5,11:00,23.0,42.5
2012/6/5,12:00,23.8,44.7
2012/6/5,13:00,24.0,46.0
2012/6/5,14:00,24.5,46.1
2012/6/5,15:00,23.4,43.6
2012/6/5,16:00,22.4,40.9
2012/6/5,17:00,21.3,36.2
2012/6/5,18:00,20.2,30.5
2012/6/5,19:00,17.2,21.1
2012/6/5,20:00,16.4,19.3
2012/6/5,21:00,15.6,17.4
2012/6/5,22:00,15.0,16.5
2012/6/5,23:00,14.3,15.5
2012/6/5,24:00,14.0,15.2
2012/6/6,1:00,14.0,15.2
2012/6/6,2:00,14.6,15.6
2012/6/6,3:00,14.2,15.3
2012/6/6,4:00,14.5,15.4
2012/6/6,5:00,14.8,16.6
2012/6/6,6:00,15.5,18.8
2012/6/6,7:00,17.1,22.0
2012/6/6,8:00,19.3,25.6
2012/6/6,9:00,21.9,37.1
2012/6/6,10:00,22.4,38.3
2012/6/6,11:00,21.3,30.3
2012/6/6,12:00,22.2,31.7
2012/6/6,13:00,21.0,30.5
2012/6/6,14:00,20.7,28.8
2012/6/6,15:00,18.0,31.7
2012/6/6,16:00,15.8,20.7
2012/6/6,17:00,15.5,19.4
2012/6/6,18:00,14.9,17.3
2012/6/6,19:00,14.6,15.5
2012/6/6,20:00,14.8,15.6
2012/6/6,21:00,14.4,15.2
2012/6/6,22:00,14.4,15.1
2012/6/6,23:00,14.5,15.2
2012/6/6,24:00,14.4,15.1
2012/6/7,1:00,14.5,15.1
2012/6/7,2:00,14.3,14.8
2012/6/7,3:00,13.9,14.4
2012/6/7,4:00,13.4,13.8
2012/6/7,5:00,13.5,14.9
2012/6/7,6:00,14.0,16.8
2012/6/7,7:00,17.1,28.5
2012/6/7,8:00,20.4,34.0
2012/6/7,9:00,21.5,36.3
2012/6/7,10:00,22.0,37.3
2012/6/7,11:00,23.6,39.5
2012/6/7,12:00,22.1,38.5
2012/6/7,13:00,21.7,38.3
2012/6/7,14:00,22.6,38.6
2012/6/7,15:00,23.1,38.6
2012/6/7,16:00,22.2,36.7
2012/6/7,17:00,21.7,33.2
2012/6/7,18:00,20.2,27.5
2012/6/7,19:00,16.4,18.5
2012/6/7,20:00,15.9,17.1
2012/6/7,21:00,14.9,15.8
2012/6/7,22:00,14.6,15.5
2012/6/7,23:00,14.3,14.8
2012/6/7,24:00,14.0,14.6
2012/6/8,1:00,13.4,14.0
2012/6/8,2:00,13.1,13.7
2012/6/8,3:00,12.9,13.4
2012/6/8,4:00,12.9,13.2
2012/6/8,5:00,13.3,14.6
2012/6/8,6:00,13.9,16.7
2012/6/8,7:00,17.3,28.8
2012/6/8,8:00,19.7,32.7
2012/6/8,9:00,22.1,36.7
2012/6/8,10:00,22.0,37.3
2012/6/8,11:00,23.7,39.7
2012/6/8,12:00,22.8,39.8
2012/6/8,13:00,20.7,31.4
2012/6/8,14:00,23.2,41.2
2012/6/8,15:00,23.9,41.6
2012/6/8,16:00,23.0,39.0
2012/6/8,17:00,23.6,36.1
2012/6/8,18:00,21.1,28.9
2012/6/8,19:00,18.5,21.0
2012/6/8,20:00,17.1,19.1
2012/6/8,21:00,16.5,18.2
2012/6/8,22:00,15.7,17.4
2012/6/8,23:00,15.2,16.7
2012/6/8,24:00,14.8,16.4
2012/6/9,1:00,15.2,16.5
2012/6/9,2:00,16.9,18.3
2012/6/9,3:00,15.6,16.8
2012/6/9,4:00,16.5,17.8
2012/6/9,5:00,16.2,18.8
2012/6/9,6:00,17.1,21.1
2012/6/9,7:00,17.9,23.6
2012/6/9,8:00,18.9,26.0
2012/6/9,9:00,20.6,28.9
2012/6/9,10:00,20.7,29.9
2012/6/9,11:00,20.5,30.0
2012/6/9,12:00,20.4,29.7
2012/6/9,13:00,20.7,29.2
2012/6/9,14:00,20.3,27.8
2012/6/9,15:00,18.7,25.2
2012/6/9,16:00,18.5,23.8
2012/6/9,17:00,17.6,21.6
2012/6/9,18:00,16.9,19.4
2012/6/9,19:00,16.0,17.1
2012/6/9,20:00,15.9,16.9
2012/6/9,21:00,16.2,17.1
2012/6/9,22:00,15.7,16.7
2012/6/9,23:00,15.8,16.8
2012/6/9,24:00,15.7,16.6
2012/6/10,1:00,15.9,16.7
2012/6/10,2:00,15.5,16.4
2012/6/10,3:00,15.4,16.1
2012/6/10,4:00,15.0,15.7
2012/6/10,5:00,15.3,16.9
2012/6/10,6:00,16.0,19.1
2012/6/10,7:00,17.9,22.4
2012/6/10,8:00,19.3,25.3
2012/6/10,9:00,19.9,27.6
2012/6/10,10:00,19.9,28.8
2012/6/10,11:00,20.4,29.9
2012/6/10,12:00,20.5,29.4
2012/6/10,13:00,23.5,38.3
2012/6/10,14:00,21.0,28.6
2012/6/10,15:00,18.4,26.4
2012/6/10,16:00,17.7,25.1
2012/6/10,17:00,20.1,31.7
2012/6/10,18:00,19.1,26.0
2012/6/10,19:00,18.8,20.7
2012/6/10,20:00,16.3,18.0
2012/6/10,21:00,15.1,16.7
2012/6/10,22:00,15.1,16.4
2012/6/10,23:00,15.4,16.6
2012/6/10,24:00,15.7,16.8
2012/6/11,1:00,13.6,14.4
2012/6/11,2:00,12.3,12.9
2012/6/11,3:00,12.1,12.7
2012/6/11,4:00,11.1,11.7
2012/6/11,5:00,12.0,15.8
2012/6/11,6:00,14.3,22.9
2012/6/11,7:00,16.9,29.0
2012/6/11,8:00,20.7,35.8
2012/6/11,9:00,21.4,38.3
2012/6/11,10:00,21.3,38.5
2012/6/11,11:00,23.4,41.2
2012/6/11,12:00,23.1,41.5
2012/6/11,13:00,24.7,44.0
2012/6/11,14:00,24.3,43.6
2012/6/11,15:00,24.7,43.6
2012/6/11,16:00,22.5,39.6
2012/6/11,17:00,21.3,34.7
2012/6/11,18:00,19.9,28.4
2012/6/11,19:00,17.8,20.3
2012/6/11,20:00,16.8,18.8
2012/6/11,21:00,16.1,18.2
2012/6/11,22:00,16.4,18.7
2012/6/11,23:00,15.7,17.9
2012/6/11,24:00,15.2,17.1
2012/6/12,1:00,15.0,16.7
2012/6/12,2:00,14.7,16.3
2012/6/12,3:00,14.2,15.8
2012/6/12,4:00,14.1,15.6
2012/6/12,5:00,14.2,16.6
2012/6/12,6:00,16.8,26.4
2012/6/12,7:00,18.8,31.9
2012/6/12,8:00,19.4,34.7
2012/6/12,9:00,19.8,36.2
2012/6/12,10:00,19.9,36.8
2012/6/12,11:00,20.6,37.5
2012/6/12,12:00,20.5,37.6
2012/6/12,13:00,20.0,37.3
2012/6/12,14:00,19.9,36.4
2012/6/12,15:00,17.9,34.1
2012/6/12,16:00,17.6,32.1
2012/6/12,17:00,17.0,29.2
2012/6/12,18:00,14.5,18.9
2012/6/12,19:00,13.5,16.4
2012/6/12,20:00,13.2,15.8
2012/6/12,21:00,13.1,15.3
2012/6/12,22:00,12.9,15.0
2012/6/12,23:00,12.7,14.8
2012/6/12,24:00,12.7,14.8
2012/6/13,1:00,12.7,14.8
2012/6/13,2:00,12.5,14.4
2012/6/13,3:00,12.4,14.1
2012/6/13,4:00,12.4,13.8
2012/6/13,5:00,12.8,15.2
2012/6/13,6:00,13.3,17.2
2012/6/13,7:00,16.5,29.5
2012/6/13,8:00,17.7,33.4
2012/6/13,9:00,18.5,35.4
2012/6/13,10:00,19.7,37.1
2012/6/13,11:00,20.3,38.0
2012/6/13,12:00,20.5,38.5
2012/6/13,13:00,20.6,39.2
2012/6/13,14:00,21.1,39.9
2012/6/13,15:00,20.9,39.0
2012/6/13,16:00,20.4,36.7
2012/6/13,17:00,19.0,32.1
2012/6/13,18:00,17.1,25.7
2012/6/13,19:00,14.1,16.8
2012/6/13,20:00,13.2,15.5
2012/6/13,21:00,12.6,14.6
2012/6/13,22:00,12.3,14.2
2012/6/13,23:00,12.0,13.8
2012/6/13,24:00,11.6,13.2
2012/6/14,1:00,11.2,12.6
2012/6/14,2:00,11.1,12.3
2012/6/14,3:00,11.0,12.1
2012/6/14,4:00,10.9,12.1
2012/6/14,5:00,11.6,13.7
2012/6/14,6:00,13.5,22.7
2012/6/14,7:00,13.4,18.9
2012/6/14,8:00,14.4,21.4
2012/6/14,9:00,15.7,24.1
2012/6/14,10:00,17.6,27.4
2012/6/14,11:00,20.7,37.6
2012/6/14,12:00,22.5,40.0
2012/6/14,13:00,23.4,41.5
2012/6/14,14:00,23.4,41.5
2012/6/14,15:00,22.7,40.2
2012/6/14,16:00,22.6,38.9
2012/6/14,17:00,21.4,34.3
2012/6/14,18:00,19.5,27.5
2012/6/14,19:00,17.3,19.5
2012/6/14,20:00,16.5,18.2
2012/6/14,21:00,15.7,17.0
2012/6/14,22:00,15.3,16.4
2012/6/14,23:00,14.2,15.2
2012/6/14,24:00,13.4,14.4
2012/6/15,1:00,12.8,13.6
2012/6/15,2:00,12.4,13.2
2012/6/15,3:00,11.9,12.5
2012/6/15,4:00,11.5,12.0
2012/6/15,5:00,12.2,16.0
2012/6/15,6:00,14.6,23.2
2012/6/15,7:00,18.0,30.0
2012/6/15,8:00,19.9,34.1
2012/6/15,9:00,22.0,37.3
2012/6/15,10:00,23.8,39.7
2012/6/15,11:00,23.9,40.0
2012/6/15,12:00,24.7,41.7
2012/6/15,13:00,26.6,44.7
2012/6/15,14:00,25.8,43.8
2012/6/15,15:00,26.3,44.1
2012/6/15,16:00,26.1,42.4
2012/6/15,17:00,23.7,36.4
2012/6/15,18:00,20.8,25.1
2012/6/15,19:00,19.1,21.7
2012/6/15,20:00,17.8,20.0
2012/6/15,21:00,16.8,18.9
2012/6/15,22:00,15.9,17.6
2012/6/15,23:00,15.4,16.9
2012/6/15,24:00,15.0,16.4
2012/6/16,1:00,14.4,15.8
2012/6/16,2:00,14.4,15.6
2012/6/16,3:00,13.9,15.0
2012/6/16,4:00,13.9,15.1
2012/6/16,5:00,14.4,16.4
2012/6/16,6:00,14.9,18.6
2012/6/16,7:00,15.6,20.8
2012/6/16,8:00,15.7,22.0
2012/6/16,9:00,16.8,23.8
2012/6/16,10:00,16.6,23.9
2012/6/16,11:00,17.2,24.8
2012/6/16,12:00,18.3,26.0
2012/6/16,13:00,19.1,26.7
2012/6/16,14:00,19.6,27.0
2012/6/16,15:00,19.7,26.5
2012/6/16,16:00,17.9,23.5
2012/6/16,17:00,17.4,21.6
2012/6/16,18:00,17.8,20.4
2012/6/16,19:00,17.5,18.7
2012/6/16,20:00,17.5,18.3
2012/6/16,21:00,17.4,18.1
2012/6/16,22:00,17.6,18.1
2012/6/16,23:00,17.8,18.1
2012/6/16,24:00,17.5,17.9
2012/6/17,1:00,17.4,17.8
2012/6/17,2:00,17.6,18.0
2012/6/17,3:00,17.5,17.9
2012/6/17,4:00,17.7,18.1
2012/6/17,5:00,18.4,19.9
2012/6/17,6:00,19.1,22.2
2012/6/17,7:00,19.7,24.1
2012/6/17,8:00,20.6,26.2
2012/6/17,9:00,21.3,27.7
2012/6/17,10:00,22.2,29.2
2012/6/17,11:00,22.6,30.1
2012/6/17,12:00,22.0,29.5
2012/6/17,13:00,20.6,27.7
2012/6/17,14:00,20.6,27.2
2012/6/17,15:00,18.8,24.8
2012/6/17,16:00,17.3,22.4
2012/6/17,17:00,16.7,20.6
2012/6/17,18:00,16.3,18.9
2012/6/17,19:00,15.9,17.0
2012/6/17,20:00,16.0,17.0
2012/6/17,21:00,16.0,17.1
2012/6/17,22:00,16.0,17.0
2012/6/17,23:00,16.0,17.0
2012/6/17,24:00,15.6,16.6
2012/6/18,1:00,15.6,16.5
2012/6/18,2:00,14.6,15.5
2012/6/18,3:00,14.1,14.9
2012/6/18,4:00,14.6,15.2
2012/6/18,5:00,14.8,16.4
2012/6/18,6:00,15.7,18.7
2012/6/18,7:00,16.2,20.9
2012/6/18,8:00,17.3,23.3
2012/6/18,9:00,17.9,25.0
2012/6/18,10:00,19.7,27.7
2012/6/18,11:00,20.8,29.5
2012/6/18,12:00,23.2,38.7
2012/6/18,13:00,24.0,39.5
2012/6/18,14:00,24.0,39.8
2012/6/18,15:00,22.9,38.4
2012/6/18,16:00,19.8,26.5
2012/6/18,17:00,19.1,24.4
2012/6/18,18:00,18.5,22.4
2012/6/18,19:00,17.6,19.9
2012/6/18,20:00,16.8,18.6
2012/6/18,21:00,16.0,17.2
2012/6/18,22:00,15.3,16.1
2012/6/18,23:00,14.9,15.7
2012/6/18,24:00,14.2,14.8
2012/6/19,1:00,13.8,14.4
2012/6/19,2:00,13.7,14.3
2012/6/19,3:00,13.8,14.4
2012/6/19,4:00,13.2,13.7
2012/6/19,5:00,13.4,14.9
2012/6/19,6:00,14.3,17.3
2012/6/19,7:00,15.3,20.0
2012/6/19,8:00,19.3,25.7
2012/6/19,9:00,20.2,27.7
2012/6/19,10:00,21.4,29.6
2012/6/19,11:00,22.0,30.4
2012/6/19,12:00,21.2,29.5
2012/6/19,13:00,21.5,29.6
2012/6/19,14:00,20.7,28.3
2012/6/19,15:00,20.3,26.9
2012/6/19,16:00,19.7,25.0
2012/6/19,17:00,18.0,21.9
2012/6/19,18:00,17.3,19.7
2012/6/19,19:00,16.7,17.7
2012/6/19,20:00,16.7,17.7
2012/6/19,21:00,16.7,17.8
2012/6/19,22:00,16.4,17.6
2012/6/19,23:00,16.0,17.1
2012/6/19,24:00,15.5,16.7
2012/6/20,1:00,15.7,16.8
2012/6/20,2:00,15.8,16.9
2012/6/20,3:00,15.6,16.7
2012/6/20,4:00,16.3,17.3
2012/6/20,5:00,16.6,18.7
2012/6/20,6:00,17.1,20.6
2012/6/20,7:00,17.7,22.8
2012/6/20,8:00,18.8,25.0
2012/6/20,9:00,19.6,26.3
2012/6/20,10:00,19.7,27.2
2012/6/20,11:00,18.7,26.6
2012/6/20,12:00,18.4,25.9
2012/6/20,13:00,19.1,26.1
2012/6/20,14:00,18.9,25.5
2012/6/20,15:00,18.6,24.6
2012/6/20,16:00,18.2,23.3
2012/6/20,17:00,17.9,21.9
2012/6/20,18:00,17.5,20.3
2012/6/20,19:00,16.8,18.2
2012/6/20,20:00,17.0,18.3
2012/6/20,21:00,16.6,17.9
2012/6/20,22:00,16.8,17.9
2012/6/20,23:00,17.4,18.5
2012/6/20,24:00,17.8,18.9
2012/6/21,1:00,17.9,18.5
2012/6/21,2:00,17.4,17.9
2012/6/21,3:00,16.7,17.4
2012/6/21,4:00,16.6,17.4
2012/6/21,5:00,16.5,18.3
2012/6/21,6:00,17.3,20.4
2012/6/21,7:00,19.8,30.8
2012/6/21,8:00,20.1,33.0
2012/6/21,9:00,20.6,34.5
2012/6/21,10:00,18.1,25.6
2012/6/21,11:00,16.9,24.6
2012/6/21,12:00,16.9,24.8
2012/6/21,13:00,17.3,24.9
2012/6/21,14:00,17.4,24.6
2012/6/21,15:00,16.5,22.9
2012/6/21,16:00,17.0,22.5
2012/6/21,17:00,15.9,20.1
2012/6/21,18:00,14.9,17.5
2012/6/21,19:00,14.4,15.5
2012/6/21,20:00,14.4,15.5
2012/6/21,21:00,14.6,15.5
2012/6/21,22:00,14.5,15.3
2012/6/21,23:00,14.3,15.0
2012/6/21,24:00,14.4,15.1
2012/6/22,1:00,14.4,15.1
2012/6/22,2:00,14.4,15.0
2012/6/22,3:00,14.2,14.8
2012/6/22,4:00,14.2,14.8
2012/6/22,5:00,14.7,16.2
2012/6/22,6:00,15.5,18.5
2012/6/22,7:00,15.4,19.7
2012/6/22,8:00,16.0,21.9
2012/6/22,9:00,16.2,23.7
2012/6/22,10:00,17.9,26.3
2012/6/22,11:00,18.1,27.7
2012/6/22,12:00,18.9,28.9
2012/6/22,13:00,17.6,27.7
2012/6/22,14:00,17.0,26.0
2012/6/22,15:00,19.7,34.8
2012/6/22,16:00,16.2,22.5
2012/6/22,17:00,15.6,20.3
2012/6/22,18:00,15.3,18.1
2012/6/22,19:00,14.1,15.2
2012/6/22,20:00,14.2,15.0
2012/6/22,21:00,14.0,14.8
2012/6/22,22:00,13.5,14.3
2012/6/22,23:00,13.3,14.3
2012/6/22,24:00,13.6,14.4
2012/6/23,1:00,13.4,14.2
2012/6/23,2:00,13.9,14.6
2012/6/23,3:00,13.1,13.8
2012/6/23,4:00,13.6,14.2
2012/6/23,5:00,13.1,14.9
2012/6/23,6:00,13.2,16.3
2012/6/23,7:00,14.2,18.8
2012/6/23,8:00,14.6,20.3
2012/6/23,9:00,14.9,21.4
2012/6/23,10:00,15.7,23.1
2012/6/23,11:00,15.6,23.5
2012/6/23,12:00,16.3,24.3
2012/6/23,13:00,16.1,23.9
2012/6/23,14:00,15.2,22.5
2012/6/23,15:00,15.0,21.7
2012/6/23,16:00,14.8,20.3
2012/6/23,17:00,14.9,19.4
2012/6/23,18:00,14.1,17.1
2012/6/23,19:00,13.3,14.7
2012/6/23,20:00,13.6,14.8
2012/6/23,21:00,13.6,14.7
2012/6/23,22:00,13.6,14.6
2012/6/23,23:00,13.8,14.7
2012/6/23,24:00,13.5,14.5
2012/6/24,1:00,13.7,14.5
2012/6/24,2:00,13.9,14.5
2012/6/24,3:00,14.0,14.6
2012/6/24,4:00,14.0,14.5
2012/6/24,5:00,14.3,15.8
2012/6/24,6:00,15.0,17.8
2012/6/24,7:00,15.4,19.7
2012/6/24,8:00,15.8,21.4
2012/6/24,9:00,17.0,23.7
2012/6/24,10:00,16.3,24.1
2012/6/24,11:00,16.1,24.4
2012/6/24,12:00,19.6,34.6
2012/6/24,13:00,18.1,26.8
2012/6/24,14:00,21.1,36.7
2012/6/24,15:00,20.9,35.9
2012/6/24,16:00,20.3,33.8
2012/6/24,17:00,17.9,23.2
2012/6/24,18:00,17.3,20.6
2012/6/24,19:00,16.7,18.3
2012/6/24,20:00,15.9,17.2
2012/6/24,21:00,15.6,16.7
2012/6/24,22:00,14.7,15.6
2012/6/24,23:00,14.1,15.0
2012/6/24,24:00,14.1,15.0
2012/6/25,1:00,14.0,14.9
2012/6/25,2:00,14.0,15.0
2012/6/25,3:00,14.0,14.9
2012/6/25,4:00,14.1,15.0
2012/6/25,5:00,14.3,18.5
2012/6/25,6:00,16.0,25.4
2012/6/25,7:00,17.6,30.7
2012/6/25,8:00,18.6,34.3
2012/6/25,9:00,19.5,36.4
2012/6/25,10:00,20.1,37.8
2012/6/25,11:00,20.8,38.8
2012/6/25,12:00,20.4,38.6
2012/6/25,13:00,21.8,40.7
2012/6/25,14:00,22.4,41.8
2012/6/25,15:00,22.6,41.9
2012/6/25,16:00,23.0,40.7
2012/6/25,17:00,22.1,37.1
2012/6/25,18:00,20.1,32.0
2012/6/25,19:00,16.3,21.0
2012/6/25,20:00,15.0,18.3
2012/6/25,21:00,13.6,16.6
2012/6/25,22:00,13.0,15.7
2012/6/25,23:00,12.2,14.5
2012/6/25,24:00,11.8,13.9
2012/6/26,1:00,11.4,13.0
2012/6/26,2:00,11.1,12.5
2012/6/26,3:00,11.8,12.8
2012/6/26,4:00,10.9,11.8
2012/6/26,5:00,11.7,15.8
2012/6/26,6:00,13.2,22.4
2012/6/26,7:00,16.9,30.5
2012/6/26,8:00,19.1,35.9
2012/6/26,9:00,20.2,40.1
2012/6/26,10:00,21.0,41.8
2012/6/26,11:00,20.9,42.5
2012/6/26,12:00,21.6,44.5
2012/6/26,13:00,22.4,45.3
2012/6/26,14:00,23.5,45.1
2012/6/26,15:00,23.4,44.2
2012/6/26,16:00,23.4,42.8
2012/6/26,17:00,23.6,39.4
2012/6/26,18:00,22.5,33.1
2012/6/26,19:00,18.1,21.8
2012/6/26,20:00,16.0,18.5
2012/6/26,21:00,14.3,17.0
2012/6/26,22:00,12.9,15.2
2012/6/26,23:00,13.0,14.8
2012/6/26,24:00,11.9,13.4
2012/6/27,1:00,11.6,12.9
2012/6/27,2:00,11.1,12.3
2012/6/27,3:00,10.6,11.5
2012/6/27,4:00,10.3,11.0
2012/6/27,5:00,11.2,15.2
2012/6/27,6:00,12.8,21.6
2012/6/27,7:00,15.1,27.6
2012/6/27,8:00,20.2,36.1
2012/6/27,9:00,22.0,40.5
2012/6/27,10:00,23.7,45.0
2012/6/27,11:00,24.4,46.1
2012/6/27,12:00,23.9,47.2
2012/6/27,13:00,25.6,49.0
2012/6/27,14:00,23.6,46.2
2012/6/27,15:00,23.0,44.0
2012/6/27,16:00,22.0,41.5
2012/6/27,17:00,21.3,37.8
2012/6/27,18:00,19.7,31.3
2012/6/27,19:00,16.0,20.7
2012/6/27,20:00,14.6,17.7
2012/6/27,21:00,13.5,15.9
2012/6/27,22:00,13.3,14.9
2012/6/27,23:00,12.7,14.1
2012/6/27,24:00,12.3,13.5
2012/6/28,1:00,11.7,12.9
2012/6/28,2:00,11.5,12.6
2012/6/28,3:00,11.2,11.9
2012/6/28,4:00,10.8,11.5
2012/6/28,5:00,11.5,15.6
2012/6/28,6:00,13.6,22.6
2012/6/28,7:00,16.5,29.4
2012/6/28,8:00,20.3,37.1
2012/6/28,9:00,23.3,42.2
2012/6/28,10:00,24.4,45.0
2012/6/28,11:00,25.5,46.6
2012/6/28,12:00,25.5,48.2
2012/6/28,13:00,25.4,49.0
2012/6/28,14:00,26.5,49.2
2012/6/28,15:00,25.8,47.7
2012/6/28,16:00,25.5,46.4
2012/6/28,17:00,21.9,40.5
2012/6/28,18:00,20.5,32.7
2012/6/28,19:00,17.6,22.8
2012/6/28,20:00,15.6,20.1
2012/6/28,21:00,13.7,18.0
2012/6/28,22:00,13.6,17.7
2012/6/28,23:00,13.5,17.2
2012/6/28,24:00,12.8,15.8
2012/6/29,1:00,12.3,14.7
2012/6/29,2:00,11.8,13.7
2012/6/29,3:00,11.4,13.0
2012/6/29,4:00,11.0,12.5
2012/6/29,5:00,11.4,13.5
2012/6/29,6:00,14.4,23.9
2012/6/29,7:00,18.0,30.5
2012/6/29,8:00,18.0,25.7
2012/6/29,9:00,21.0,37.9
2012/6/29,10:00,22.1,40.1
2012/6/29,11:00,22.7,41.1
2012/6/29,12:00,24.2,43.0
2012/6/29,13:00,26.1,46.2
2012/6/29,14:00,27.1,46.5
2012/6/29,15:00,26.3,45.9
2012/6/29,16:00,25.6,42.7
2012/6/29,17:00,23.5,37.8
2012/6/29,18:00,22.2,31.6
2012/6/29,19:00,19.7,23.1
2012/6/29,20:00,17.5,19.9
2012/6/29,21:00,15.8,17.7
2012/6/29,22:00,15.3,16.7
2012/6/29,23:00,14.6,16.0
2012/6/29,24:00,14.1,15.2
2012/6/30,1:00,13.9,14.9
2012/6/30,2:00,13.7,14.6
2012/6/30,3:00,13.2,14.0
2012/6/30,4:00,13.2,13.9
2012/6/30,5:00,13.9,18.0
2012/6/30,6:00,16.4,25.2
2012/6/30,7:00,20.5,32.9
2012/6/30,8:00,22.2,37.6
2012/6/30,9:00,23.3,40.6
2012/6/30,10:00,24.9,43.5
2012/6/30,11:00,24.6,44.2
2012/6/30,12:00,25.7,45.9
2012/6/30,13:00,26.4,48.0
2012/6/30,14:00,26.5,48.1
2012/6/30,15:00,25.4,45.2
2012/6/30,16:00,25.8,44.7
2012/6/30,17:00,24.8,39.9
2012/6/30,18:00,22.2,33.1
2012/6/30,19:00,20.0,24.7
2012/6/30,20:00,19.0,23.2
2012/6/30,21:00,18.7,22.5
2012/6/30,22:00,18.1,21.3
2012/6/30,23:00,17.2,20.2
2012/6/30,24:00,16.4,19.7
